This demonstration page uses our WeatherBlox Daily Observations layout. Learn more.

Left ArrowRight Arrow

Hourly Observations for July 31, 2015

Temp ( °F °C ) Dew Point ( °F °C ) Humidity (%) Winds ( mph kmh ) Pressure ( in mb ) Visibility ( mi km ) Precip ( " mm )
12:54 am 00:54 Clear 70 21.1 61 16.1 73 73 SE 3 6 30.12 1020 10 16 N/A
1:54 am 01:54 Clear 70 21.1 62 16.7 76 76 S 3 6 30.12 1020 10 16 N/A
2:54 am 02:54 Clear 69 20.6 62 16.7 78 78 N N/A 30.12 1020 10 16 N/A
3:54 am 03:54 Clear 70 21.1 63 17.2 79 79 SSW 3 6 30.11 1020 10 16 N/A
4:54 am 04:54 Clear 69 20.6 64 17.8 84 84 NE 7 11 30.13 1020 10 16 N/A
5:54 am 05:54 Clear 69 20.6 64 17.8 84 84 NE 5 7 30.15 1021 10 16 N/A
6:54 am 06:54 Sunny 68 20 64 17.8 87 87 S 3 6 30.15 1021 10 16 N/A
7:54 am 07:54 Sunny 72 22.2 66 18.9 82 82 SSE 7 11 30.15 1021 10 16 N/A
8:54 am 08:54 Sunny 77 25 67 19.4 71 71 SSW 6 9 30.14 1021 10 16 N/A
9:54 am 09:54 Sunny 81 27.2 69 20.6 67 67 WSW 8 13 30.14 1021 10 16 N/A
10:54 am 10:54 Sunny 84 28.9 71 21.7 65 65 WSW 8 13 30.12 1020 10 16 N/A
11:54 am 11:54 Sunny 87 30.6 72 22.2 61 61 SW 8 13 30.12 1020 10 16 N/A
12:54 pm 12:54 Sunny 90 32.2 72 22.2 56 56 W 9 15 30.09 1019 10 16 N/A
1:54 pm 13:54 Sunny 92 33.3 70 21.1 49 49 W 12 19 30.08 1019 10 16 N/A
2:54 pm 14:54 Sunny 92 33.3 70 21.1 49 49 SW 8 13 30.06 1018 10 16 N/A
3:54 pm 15:54 Partly Cloudy 93 33.9 69 20.6 46 46 SW 8 13 30.04 1017 10 16 N/A
4:54 pm 16:54 Sunny 90 32.2 69 20.6 50 50 W 7 11 30.01 1016 10 16 N/A
5:54 pm 17:54 Mostly Sunny 87 30.6 71 21.7 59 59 WNW 8 13 30.03 1017 10 16 N/A
6:54 pm 18:54 Partly Cloudy 85 29.4 66 18.9 53 53 NE 9 15 29.99 1016 10 16 N/A
7:54 pm 19:54 Sunny 82 27.8 57 13.9 42 42 N 9 15 30.00 1016 10 16 N/A
8:54 pm 20:54 Clear 76 24.4 63 17.2 64 64 E 6 9 30.01 1016 10 16 N/A
9:54 pm 21:54 Clear 77 25 65 18.3 66 66 W 3 6 30.03 1017 10 16 N/A
10:54 pm 22:54 Clear 72 22.2 65 18.3 79 79 N 3 6 30.04 1017 10 16 N/A
11:54 pm 23:54 Clear 70 21.1 64 17.8 82 82 NNW 5 7 30.06 1018 10 16 N/A

Powered by AerisWeather